Погода в Сан-Хосе-дель-Кабо

Мексика     23°05′44″N   109°42′37″W
темп.,
°C
ветер,
м/с
пор.,
м/с
влажн.,
%
обл.,
%
осадки,
мм/ч
давл.,
гПа
погр.,
м
13 мая, чт
чт1300:00+26с115118 0.0 101312
03:00+25з115111 0.0 101212
06:00+25з11535 0.0 101211
09:00+28вюв11425 0.0 1013244
12:00+29ююв43435 0.0 1013666
15:00+30ю43445 0.0 1012722
18:00+31ююз44392 0.0 1010615
21:00+28з23425 0.0 101033
14 мая, пт
пт1400:00+28сз2240100 0.0 101126
03:00+27ссв2240100 0.0 101014
06:00+26ссз114626 0.0 101112
09:00+30ю013697 0.0 1013263
12:00+30ююв43392 0.0 1013751
15:00+31ююв44385 0.0 1012765
18:00+30ююв233724 0.0 1010591
21:00+28зсз224625 0.0 101125
15 мая, сб
сб1500:00+27сз334898 0.0 101141
03:00+26сз445248 0.0 101149
06:00+25с225218 0.0 101216
09:00+28ююв12507 0.0 1014385
12:00+29ююв535090 0.0 1014713
15:00+30ююв554395 0.0 1012798
18:00+31с143866 0.0 1010623
21:00+25ссз2252100 0.0 101233
16 мая, вс
вс1600:00+25сз2242100 0.0 101222
03:00+25сз2235100 0.0 101126
06:00+23сз22355 0.0 101213
09:00+27вюв012799 0.0 1014239
12:00+28ююв4240100 0.0 1014587
15:00+30ю433670 0.0 1012736
18:00+27в344798 0.0 1011360
21:00+24ссв116487 0.0 101222
17 мая, пн
пн1700:00+24зсз225462 0.0 101326
03:00+23зсз22457 0.0 101113
06:00+23сз12411 0.0 101111
09:00+26ююв213773 0.0 1012235
12:00+28ююв534295 0.0 1013679
15:00+29юв53395 0.0 1011655
18:00+27в33455 0.0 1010350
21:00+24сз12530 0.0 101122